User: anonymous
Location: Brno
(49.2000°N, 16.6330°E)
Time: 21:53:16
(UTC+02:00)
Language:

Cosmos 2227 - Orbit

View from above orbital plane
View from above orbital plane
View from above satellite
View from above satellite

Ground track
Ground track

The orbit data is extracted from the following two-line orbital elements,

1 22284U 92093A   14293.81581758 -.00000176  00000-0 -68385-4 0    51
2 22284 070.9797 109.6020 0019282 211.0843 277.4450 14.13193082125557
Epoch (UTC): 20 October 2014 19:34:46
Eccentricity: 0.0019282
inclination: 70.9797°
perigee height: 834 km
apogee height: 862 km
right ascension of ascending node: 109.6020°
argument of perigee: 211.0843°
revolutions per day: 14.13193082
mean anomaly at epoch: 277.4450°
orbit number at epoch: 12555

The dashed part of the orbit path shows where the satellite is in the earth's shadow,  

DLR